This is the latest recevied weather packets stored in our database for station/object K9ZOG. If no packets are shown the sender has not sent any weather packets the latest 1 day(s).
| Time | Temp. | Humidity | Pressure | Rain* | Wind** | Luminosity | Snow |
|---|---|---|---|---|---|---|---|
| 1778032452 | 7.78° C | 60% | 1009.2 hPa | 0 mm | - | 0 W/m² | - |
| 1778031854 | 7.78° C | 59% | 1009.4 hPa | 0 mm | - | 0 W/m² | - |
| 1778031553 | 7.78° C | 59% | 1009.1 hPa | 0 mm | - | 0 W/m² | - |
| 1778031252 | 7.78° C | 58% | 1009.1 hPa | 0 mm | - | 0 W/m² | - |
| 1778030652 | 7.78° C | 57% | 1008.8 hPa | 0 mm | - | 0 W/m² | - |
| 1778030053 | 8.33° C | 55% | 1008.8 hPa | 0 mm | - | 0 W/m² | - |
| 1778028555 | 9.44° C | 50% | 1008.6 hPa | 0 mm | - | 2 W/m² | - |
| 1778027952 | 9.44° C | 49% | 1008.5 hPa | 0 mm | - | 6 W/m² | - |
| 1778027655 | 10° C | 48% | 1008.5 hPa | 0 mm | - | 7 W/m² | - |
| 1778027352 | 10° C | 48% | 1008.5 hPa | 0 mm | - | 9 W/m² | - |
| 1778027052 | 10° C | 47% | 1008.4 hPa | 0 mm | - | 11 W/m² | - |
| 1778026754 | 10° C | 47% | 1008.4 hPa | 0 mm | - | 15 W/m² | - |
| 1778026452 | 10.56° C | 46% | 1008.4 hPa | 0 mm | - | 18 W/m² | - |
| 1778026153 | 10.56° C | 47% | 1008.5 hPa | 0 mm | - | 21 W/m² | - |
| 1778025252 | 10.56° C | 46% | 1008.6 hPa | 0 mm | - | 40 W/m² | - |
| 1778021354 | 11.11° C | 45% | 1008.7 hPa | 0 mm | - | 127 W/m² | - |
| 1778020153 | 11.11° C | 45% | 1008.7 hPa | 0 mm | - | 162 W/m² | - |
| 1778019852 | 10.56° C | 43% | 1008.8 hPa | 0 mm | - | 167 W/m² | - |
| 1778018653 | 10.56° C | 44% | 1008.8 hPa | 0 mm | - | 171 W/m² | - |
| 1778018353 | 11.11° C | 42% | 1008.8 hPa | 0 mm | - | 158 W/m² | - |
| 1778016853 | 11.11° C | 42% | 1008.9 hPa | 0 mm | - | 166 W/m² | - |
| 1778015954 | 11.11° C | 43% | 1008.9 hPa | 0 mm | - | 189 W/m² | - |
| 1778015357 | 11.11° C | 42% | 1008.9 hPa | 0 mm | - | 193 W/m² | - |
| 1778015053 | 11.11° C | 41% | 1008.9 hPa | 0 mm | - | 186 W/m² | - |
| 1778014755 | 11.11° C | 41% | 1009 hPa | 0 mm | - | 208 W/m² | - |
* Rain latest hour (hover to see other rain measurements)
** Current wind speed in m/s (hover to see current wind gust speed)